Other Public Products
Issued by NWS Grand Forks, ND

Home | Current Version | Previous Version | Graphics & Text | Print | Product List | Glossary On
Versions: 1 2 3 4 5 6 7 8 9 10 11 12 13 14 15 16 17 18 19 20 21 22 23 24 25 26 27 28 29 30 31 32 33 34 35 36 37 38 39 40 41 42 43 44 45 46 47 48 49 50
000
FPUS83 KFGF 291031
OPUFGF
PRAIRIE TO PINES WEATHER ROUNDUP
NATIONAL WEATHER SERVICE EASTERN NORTH DAKOTA/GRAND FORKS ND
500 AM CDT SUN MAY 29 2016

 **SATELLITE DATA USED TO AUGMENT SKY COVER AT AUTOMATED STATIONS**
 *****  WEATHER ACROSS EASTERN NORTH DAKOTA  *****

CITY           SKY/WX    TMP DP  RH WIND       PRES   REMARKS
GRAND FORKS    CLOUDY    60  58  92 NW8       29.87S
GRAND FORKS AF CLOUDY    59  59 100 N6        29.89R
GRAND CITY NWS   N/A     57 N/A N/A N9          N/A
BUXTON           N/A     59  59  99 W3          N/A
DEVILS LAKE    CLOUDY    57  55  94 NW5       29.94R
FARGO          MOCLDY    58  56  93 W6        29.88S
WAHPETON ARPT  PTSUNNY   52  48  87 NW3       29.90R
$$

 *****  WEATHER ACROSS CENTRAL AND WESTERN NORTH DAKOTA  *****

CITY           SKY/WX    TMP DP  RH WIND       PRES   REMARKS
JAMESTOWN      FOG       52  52 100 NW5       29.92R VSB 1/4
BISMARCK       CLEAR     50  49  96 CALM      29.99R
MINOT          CLEAR     54  51  90 SW10      29.94S
MINOT AFB      CLEAR     50  49  97 W8        29.93S
GARRISON         N/A     49  48  97 W5        29.97R
WILLISTON      CLEAR     45  43  93 CALM      29.98S FOG
DICKINSON      PTCLDY    46  43  89 W7        30.00R
HETTINGER      FOG       39  38  96 CALM      30.04R VSB 1/4
$$

 *****  OTHER OBSERVATIONS NORTHEAST NORTH DAKOTA  *****

CITY           SKY/WX    TMP DP  RH WIND       PRES   REMARKS
WALHALLA       FAIR      55  54  94 N7        29.90S
LANGDON        CLOUDY    55  55 100 N5        29.92S
CAVALIER       CLOUDY    57  55  94 N6        29.89S
GRAFTON        CLOUDY    57  57 100 N8        29.91R
CANDO          CLOUDY    55  55 100 CALM      29.96S FOG
FORT TOTTEN      N/A     57  57 100 NW2       29.95S
ROLLA          LGT RAIN  52  52 100 CALM      29.95S
RUGBY          CLOUDY    54  54 100 CALM      29.94R FOG
 ***** THE ABOVE OBSERVATIONS ARE NON NWS ARE NOT QUALITY
        CONTROLLED AND MAY MIS-REPORT RAIN FOR SNOW...
$$

 *****  OTHER OBSERVATIONS SOUTHEAST NORTH DAKOTA *****

CITY           SKY/WX    TMP DP  RH WIND       PRES   REMARKS
COOPERSTOWN    NOT AVBL
VALLEY CITY    PTSUNNY   54  54 100 NW9       29.93S FOG
OAKES            N/A    N/A N/A N/A MISG        N/A
GWINNER        FAIR      55  55 100 W6        29.92R
BUFFALO          N/A     54  51  92 NW3         N/A
WYNDMERE         N/A     54  54 100 W3          N/A
 ***** THE ABOVE OBSERVATIONS ARE NON NWS ARE NOT QUALITY
       CONTROLLED AND MAY MIS-REPORT RAIN FOR SNOW...
$$

  *****  WEATHER ACROSS NORTHERN MINNESOTA  *****

CITY           SKY/WX    TMP DP  RH WIND       PRES   REMARKS
FLAG ISLAND    LGT RAIN  54  52  94 N12       29.82S
WARROAD        LGT RAIN  54  50  87 NW6       29.85S
ROSEAU         DRIZZLE   55  50  82 NW7       29.85S
HALLOCK        CLOUDY    57  55  94 NW8       29.88R
THF RVR FALLS  CLOUDY    55  54  94 NW8       29.88S
HALSTAD        NOT AVBL
FOSSTON        CLOUDY    54  54 100 W6        29.88R
BAUDETTE       CLOUDY    54  53  97 NW10      29.82S FOG
WASKISH        DRIZZLE   55  54  94 W7        29.82S
CROOKSTON      CLOUDY    59  57  94 NW3       29.89R
$$
  *****  WEATHER ACROSS CENTRAL AND WEST MINNESOTA  *****

CITY           SKY/WX    TMP DP  RH WIND       PRES   REMARKS
BEMIDJI        DRIZZLE   55  54  97 W8        29.85R
PARK RAPIDS    LGT RAIN  58  56  93 NW9       29.84S
WADENA         LGT RAIN  57  57 100 W8        29.86R
DETROIT LAKES  CLOUDY    57  55  94 NW9       29.89R
MOORHEAD       MOCLDY    57  57 100 NW5       29.90R
FERGUS FALLS   CLOUDY    57  57 100 NW8       29.87R FOG
ELBOW LAKE     CLOUDY    56  56 100 NW5       29.90R FOG
MORRIS MN      PTCLDY    55  54  94 W5        29.89S FOG
STAPLES        DRIZZLE   57  57 100 W7        29.85R
WHEATON        CLEAR     55  55 100 W3        29.92R FOG
$$
  *****  WEATHER ELSEWHERE ACROSS MINNESOTA  *****

CITY           SKY/WX    TMP DP  RH WIND       PRES   REMARKS
DULUTH         CLOUDY    57  56  96 W7        29.78F FOG
INTRNTL FALLS  FOG       56  55  97 NW7       29.78S VSB 1/4
ELY            CLOUDY    57  57 100 CALM      29.77S
CLOQUET        CLOUDY    55  54  94 SW3       29.79F FOG
BRAINERD       CLOUDY    59  58  96 W8        29.83R
HIBBING        LGT RAIN  57  57 100 SW3       29.78S FOG
ALEXANDRIA     CLOUDY    59  56  89 W17       29.90R
SAINT CLOUD    LGT RAIN  60  59  96 W7        29.85S
MINNEAPOLIS    CLOUDY    62  59  90 W8        29.85R
$$

  *****  WEATHER ACROSS SOUTH DAKOTA  *****

CITY           SKY/WX    TMP DP  RH WIND       PRES   REMARKS
SIOUX FALLS    CLOUDY    59  56  89 W3        29.97R
BROOKINGS      MOCLDY    59  57  93 SW5       29.95R
WATERTOWN      CLEAR     59  55  87 W7        29.94R
HURON          CLEAR     54  52  93 W5        29.96R
SISSETON         N/A     56  54  93 W6        29.89S
ABERDEEN       PTCLDY    57  52  83 W9        29.94R
MITCHELL       PTCLDY    59  57  93 W6        29.97S
PIERRE         CLEAR     52  50  93 CALM      29.99R
MOBRIDGE       CLEAR     52  49  89 NW7       29.97R
RAPID CITY     CLEAR     44  42  93 W5        30.06S
$$

  *****  SOME WEATHER IN NEARBY STATES *****

CITY           SKY/WX    TMP DP  RH WIND       PRES   REMARKS
GLASGOW MT     CLEAR     48  37  65 NW6       29.99R
GREAT FALLS MT CLOUDY    43  34  70 S10       30.03R
CHEYENNE WY    CLEAR     43  36  76 SW6       30.16S
SCOTTSBLUFF NE CLEAR     47  44  90 E5        30.08S
OMAHA NE       CLEAR     57  53  86 SE3       30.01R
DES MOINES IA  PTCLDY    59  55  87 W5        29.98R
DAVENPORT IA   CLEAR     65  58  78 SW10      29.94S
CHICAGO IL     PTCLDY    63  61  93 S8        29.95S
EAU CLAIRE WI  CLOUDY    61  60  97 SW5       29.82R
LA CROSSE WI   LGT RAIN  64  60  87 W7        29.84R
$$

  *****  SOME NATIONAL WEATHER *****

CITY           SKY/WX    TMP DP  RH WIND       PRES   REMARKS
LA GUARDIA NY  PTCLDY    74  59  59 S6        30.12R
RALEIGH NC     CLOUDY    69  67  93 NE5       30.10S
ATLANTA GA     MOCLDY    68  59  73 NW6       30.11S
NEW ORLEANS LA PTCLDY    71  69  93 CALM      30.05R
OKLAHOMA CITY  MOCLDY    70  69  97 S8        30.05R
ALBUQUERQUE NM PTCLDY    59  17  19 CALM      30.10R
SALT LAKE CITY MOCLDY    57  39  51 S7        30.05S
LOS ANGELES CA CLOUDY    60  53  77 NW3       29.96S
BOISE ID       CLEAR     52  34  50 SE5       30.01S
SEATTLE WA     MOCLDY    54  51  90 S12       30.05S
$$

*** WEATHER ACROSS MANITOBA...SASKATCHEWAN AND ONTARIO ***
                ***ONTARIO***

CITY           SKY/WX    TMP DP  RH WIND       PRES   REMARKS
GERALDTON      DRZL/FOG  54  52  94 N5        29.78F VSB 3/4
THUNDER BAY    CLOUDY    57  57 100 N2        29.74F
SIOUX LOOKOUT  DRIZZLE   52  52 100 VRB2      29.81F FOG
TORONTO        MOCLDY    70  64  83 S2        30.04S
BIG TROUT LK   LGT RAIN  46  41  81 E8        30.03F
PICKLE LAKE    NOT AVBL
DRYDEN         CLOUDY    52  50  93 NE6       29.80S FOG
KENORA         LGT RAIN  52  52 100 N6        29.83S VSB 3/4
$$
                *** MANITOBA***

CITY           SKY/WX    TMP DP  RH WIND       PRES   REMARKS
BRANDON        CLOUDY    52  50  93 SW3       29.93S
DAUPHIN        CLOUDY    50  48  93 W6        29.94R
ISLAND LAKE    NOT AVBL
PILOT MOUND      N/A     54  52  94 NW5         N/A
THE PAS        CLOUDY    46  43  87 NE5       29.97F
THOMPSON       LGT RAIN  45  45 100 NE5       30.03S FOG
WINNIPEG       CLOUDY    54  52  94 N7        29.90S
LYNN LAKE      CLOUDY    45  41  87 NE5       30.03F
CHURCHILL      CLOUDY    27  27 100 E9        30.24F WCI  17
$$
                ***SASKATCHEWAN***

CITY           SKY/WX    TMP DP  RH WIND       PRES   REMARKS
ESTEVAN        NOT AVBL
KINDERSLEY     PTCLDY    45  41  87 S5        29.87F
LLOYDMINSTER   FOG       41  41 100 W3        29.86S VSB 3/8
PRINCE ALBERT  CLOUDY    48  46  93 E12       29.86F
REGINA         MOCLDY    43  43 100 S6        29.92S
YORKTON        CLOUDY    50  50 100 S7        29.90S
N. BATTLEFORD  CLEAR     43  43 100 SW5       29.87S FOG
LA RONGE       CLOUDY    48  45  87 E5        29.94S   C1F1C2F2C3F3C4F4C5F5C6F6C7F7C8F8C9F9CaFaCbFbCcFcCdFdCe!



USA.gov is the U.S. government's official web portal to all federal, state and local government web resources and services.